Weather History for Borden, ON

Change the Weather History Date:

Saturday, October 20, 2012

  Actual Average Record
Temperature  
Mean Temperature 46 °F -  
Max Temperature 51 °F 47 °F 75 °F (2000)
Min Temperature 40 °F 32 °F 30 °F (2000)
Degree Days  
Heating Degree Days 20    
Moisture  
Dew Point 41 °F    
Average Humidity 80    
Maximum Humidity 87    
Minimum Humidity 56    
Precipitation  
Precipitation 0.02 in - - ()
Sea Level Pressure  
Sea Level Pressure 29.63 in    
Wind  
Wind Speed 4 mph ()    
Max Wind Speed 12 mph    
Max Gust Speed -    
Visibility 9.0 miles    
Events Rain    
Averages and records for this station are not official NWS values.
T = Trace of Precipitation, MM = Missing Value Source: Averaged Metar Reports

Daily Weather History Graph

Daily Weather History Graph

Search for Another Location

Airport:

Trip Planner

Search our weather history database for the weather conditions in past years. The results will help you decide how hot, cold, wet, or windy it might be!

Date:

Astronomy

Oct. 20, 2012 Rise Set
Actual Time 7:41 AM EDT 6:26 PM EDT
Civil Twilight 7:12 AM EDT 6:55 PM EDT
Nautical Twilight 6:38 AM EDT 7:29 PM EDT
Astronomical Twilight 6:04 AM EDT 8:03 PM EDT
Moon 1:22 PM EDT (10/20) 11:04 PM EDT (10/20)
Length of Visible Light 11h 43m
Length of Day
10h 44m
Waxing Crescent, 34% of the Moon is Illuminated
Oct 20
Waxing Crescent
Oct 21
First Quarter
Oct 29
Full
Nov 6
Last Quarter
Nov 13
New

Hourly Weather History & Observations

Time (EDT) Temp. Windchill Dew Point Humidity Pressure Visibility Wind Dir Wind Speed Gust Speed Precip Events Conditions
12:00 AM 46.4 °F - 41.0 °F 81% 29.64 in 9.0 mi Calm Calm - N/A   Mostly Cloudy
1:00 AM 46.4 °F - 42.8 °F 87% 29.63 in 9.0 mi East 2.3 mph - N/A   Overcast
1:31 AM 48.2 °F - 42.8 °F 82% 29.60 in 9.0 mi East 3.5 mph - N/A Rain Light Rain
1:45 AM 48.2 °F - 42.8 °F 82% 29.60 in 9.0 mi ENE 4.6 mph - N/A   Overcast
1:50 AM 48.2 °F - 42.8 °F 82% 29.60 in 9.0 mi ENE 2.3 mph - N/A Rain Light Rain
2:00 AM 47 °F - 43 °F 81% 29.61 in 9 mi ENE 2.3 mph - -   Unknown Precipitation
2:00 AM 48.2 °F - 42.8 °F 82% 29.61 in 9.0 mi ENE 3.5 mph - N/A Rain Light Rain
2:22 AM 46.4 °F - 42.8 °F 87% 29.59 in 9.0 mi North 2.3 mph - N/A   Overcast
2:56 AM 46.4 °F - 42.8 °F 87% 29.58 in 9.0 mi NNE 2.3 mph - N/A Rain Light Rain
3:00 AM 46.4 °F - 42.8 °F 87% 29.59 in 9.0 mi Calm Calm - N/A Rain Light Rain
3:47 AM 46.4 °F 42.4 °F 42.8 °F 87% 29.58 in 9.0 mi SW 8.1 mph - N/A   Overcast
3:55 AM 46.4 °F 41.1 °F 42.8 °F 87% 29.59 in 9.0 mi SW 11.5 mph - N/A Rain Light Rain
4:00 AM 46.4 °F 41.5 °F 42.8 °F 87% 29.60 in 8.0 mi SW 10.4 mph - N/A Rain Light Rain
5:00 AM 46.4 °F 44.3 °F 42.8 °F 87% 29.60 in 8.0 mi SSW 4.6 mph - N/A Rain Light Rain
5:13 AM 46.4 °F 44.3 °F 42.8 °F 87% 29.59 in 9.0 mi SSW 4.6 mph - N/A   Overcast
6:00 AM 46.4 °F 44.3 °F 42.8 °F 87% 29.60 in 9.0 mi South 4.6 mph - N/A Rain Light Rain
6:11 AM 46.4 °F 45.2 °F 41.0 °F 81% 29.59 in 9.0 mi SSW 3.5 mph - N/A Rain Light Rain
6:15 AM 44.6 °F 42.2 °F 41.0 °F 87% 29.58 in 9.0 mi South 4.6 mph - N/A   Overcast
7:00 AM 41.0 °F 37.1 °F 37.4 °F 87% 29.60 in 9.0 mi SSE 5.8 mph - N/A   Scattered Clouds
8:00 AM 41 °F - 37 °F 82% 29.61 in 9 mi South 4.6 mph - -  
8:00 AM 41.0 °F 38.0 °F 37.4 °F 87% 29.61 in 9.0 mi South 4.6 mph - N/A   Scattered Clouds
9:00 AM 46.4 °F 42.4 °F 41.0 °F 81% 29.62 in 9.0 mi South 8.1 mph - N/A   Mostly Cloudy
10:00 AM 48.2 °F - 41.0 °F 76% 29.61 in 9.0 mi South 10.4 mph - N/A   Partly Cloudy
10:57 AM 48.2 °F - 39.2 °F 71% 29.60 in 9.0 mi SSW 11.5 mph - N/A   Overcast
11:00 AM 48.2 °F - 39.2 °F 71% 29.62 in 9.0 mi South 10.4 mph - N/A   Overcast
12:00 PM 48.2 °F - 41.0 °F 76% 29.62 in 9.0 mi SW 9.2 mph - N/A   Overcast
1:00 PM 50.0 °F - 41.0 °F 71% 29.63 in 9.0 mi SSW 5.8 mph - N/A   Overcast
2:00 PM 51 °F - 40 °F 56% 29.61 in 9 mi SW 8.1 mph - -   Overcast
2:00 PM 51.8 °F - 39.2 °F 62% 29.61 in 9.0 mi SSW 10.4 mph - N/A   Overcast
3:00 PM 51.8 °F - 41.0 °F 67% 29.62 in 9.0 mi SSW 8.1 mph - N/A   Overcast
4:00 PM 51.8 °F - 41.0 °F 67% 29.62 in 9.0 mi SW 5.8 mph - N/A   Overcast
4:26 PM 50.0 °F - 41.0 °F 71% 29.61 in 9.0 mi WSW 9.2 mph - N/A Rain Light Rain
5:00 PM 48.2 °F - 42.8 °F 82% 29.65 in 9.0 mi WSW 6.9 mph - N/A   Overcast
5:04 PM 48.2 °F - 42.8 °F 82% 29.63 in 9.0 mi WSW 5.8 mph - N/A   Mostly Cloudy
5:30 PM 48.2 °F - 41.0 °F 76% 29.64 in 9.0 mi West 5.8 mph - N/A   Overcast
6:00 PM 48.2 °F - 41.0 °F 76% 29.67 in 9.0 mi West 8.1 mph - N/A   Overcast
7:00 PM 46.4 °F 45.2 °F 41.0 °F 81% 29.69 in 9.0 mi West 3.5 mph - N/A   Overcast
7:53 PM 46.4 °F 43.5 °F 39.2 °F 76% 29.69 in 9.0 mi West 5.8 mph - N/A Rain Light Rain
8:00 PM 46 °F - 40 °F 72% 29.71 in 9 mi West 5.8 mph - -   Unknown Precipitation
8:00 PM 46.4 °F 43.5 °F 39.2 °F 76% 29.71 in 9.0 mi West 5.8 mph - N/A   Overcast
8:09 PM 46.4 °F 43.5 °F 39.2 °F 76% 29.69 in 9.0 mi West 5.8 mph - N/A Rain Light Rain
8:29 PM 46.4 °F 42.9 °F 41.0 °F 81% 29.69 in 9.0 mi WSW 6.9 mph - N/A   Overcast
9:00 PM 46.4 °F 43.5 °F 41.0 °F 81% 29.72 in 9.0 mi SW 5.8 mph - N/A   Overcast
9:20 PM 46.4 °F 45.2 °F 41.0 °F 81% 29.70 in 9.0 mi WSW 3.5 mph - N/A Rain Light Rain
9:47 PM 44.6 °F - 41.0 °F 87% 29.71 in 9.0 mi SW 2.3 mph - N/A   Overcast
10:00 PM 44.6 °F - 39.2 °F 81% 29.73 in 9.0 mi Calm Calm - N/A   Mostly Cloudy
11:55 PM 46.4 °F 42.4 °F 39.2 °F 76% 29.76 in 9.0 mi WNW 8.1 mph - N/A Rain Light Rain